| time (UTC) | temp C | wind direction | speed KPH | gust KPH | rain 1hr cm | rain 24hr cm | rain mn cm | humidity % | barometer mb |
| 20260507050829 | 11 | 11 | 4.8 | 11.3 | 0.05 | 0.66 | 0.05 | 87 | 1011.6 |
| 20260507045814 | 11 | 333 | 6.4 | 14.5 | 0.03 | 0.64 | 0.03 | 88 | 1011.7 |
| 20260507044827 | 12 | 38 | 3.2 | 12.9 | 0.03 | 0.64 | 0.03 | 88 | 1011.7 |
| 20260507043818 | 12 | 9 | 3.2 | 8.0 | 0.03 | 0.64 | 0.03 | 88 | 1011.3 |
| 20260507042845 | 12 | 38 | 3.2 | 9.7 | 0.05 | 0.64 | 0.03 | 87 | 1011.4 |
| 20260507041815 | 12 | 24 | 6.4 | 9.7 | 0.05 | 0.64 | 0.03 | 87 | 1010.9 |
| 20260507040826 | 12 | 26 | 4.8 | 8.0 | 0.05 | 0.61 | 0.00 | 87 | 1011.1 |
| 20260507035832 | 12 | 61 | 1.6 | 9.7 | 0.05 | 0.61 | 0.61 | 87 | 1010.5 |
| 20260507034845 | 12 | 340 | 4.8 | 8.0 | 0.05 | 0.61 | 0.61 | 87 | 1010.9 |
| 20260507033815 | 12 | 336 | 4.8 | 12.9 | 0.05 | 0.61 | 0.61 | 87 | 1010.8 |
| 20260507032847 | 13 | 21 | 6.4 | 11.3 | 0.03 | 0.58 | 0.58 | 87 | 1010.9 |
| 20260507031817 | 13 | 22 | 8.0 | 14.5 | 0.03 | 0.58 | 0.58 | 87 | 1010.5 |
| 20260507030829 | 13 | 337 | 4.8 | 17.7 | 0.00 | 0.56 | 0.56 | 86 | 1010.7 |
| 20260507025814 | 14 | 43 | 8.0 | 17.7 | 0.00 | 0.56 | 0.56 | 87 | 1010.8 |
| 20260507024855 | 14 | 16 | 9.7 | 17.7 | 0.00 | 0.56 | 0.56 | 87 | 1010.8 |
| 20260507023818 | 14 | 15 | 4.8 | 12.9 | 0.03 | 0.56 | 0.56 | 88 | 1010.4 |
| 20260507022830 | 15 | 339 | 3.2 | 8.0 | 0.03 | 0.56 | 0.56 | 88 | 1010.3 |
| 20260507021822 | 15 | 36 | 3.2 | 9.7 | 0.03 | 0.56 | 0.56 | 88 | 1010.5 |
| 20260507020852 | 15 | 18 | 4.8 | 9.7 | 0.03 | 0.56 | 0.56 | 88 | 1010.4 |
| 20260507015816 | 15 | 38 | 3.2 | 12.9 | 0.05 | 0.56 | 0.56 | 88 | 1010.3 |
| 20260507014824 | 15 | 17 | 4.8 | 14.5 | 0.05 | 0.56 | 0.56 | 88 | 1010.5 |
| 20260507013817 | 16 | 294 | 6.4 | 12.9 | 0.03 | 0.53 | 0.53 | 88 | 1010.4 |
| 20260507012829 | 16 | 355 | 4.8 | 8.0 | 0.03 | 0.53 | 0.53 | 88 | 1010.7 |
| 20260507011820 | 16 | 32 | 3.2 | 9.7 | 0.03 | 0.53 | 0.53 | 87 | 1010.7 |
| 20260507010832 | 17 | 19 | 4.8 | 9.7 | 0.03 | 0.53 | 0.53 | 87 | 1010.5 |
| 20260507005836 | 17 | 56 | 4.8 | 20.9 | 0.00 | 0.51 | 0.51 | 86 | 1010.4 |
| 20260507004827 | 17 | 20 | 8.0 | 24.1 | 0.00 | 0.51 | 0.51 | 87 | 1010.7 |
| 20260507003818 | 18 | 178 | 0.0 | 0.0 | 0.00 | 0.51 | 0.51 | 86 | 1009.8 |
| 20260507002829 | 18 | 178 | 0.0 | 0.0 | 0.00 | 0.51 | 0.51 | 86 | 1009.8 |
| 20260507001842 | 18 | 178 | 0.0 | 0.0 | 0.00 | 0.51 | 0.51 | 86 | 1009.7 |
| 20260507000815 | 18 | 178 | 0.0 | 0.0 | 0.00 | 0.51 | 0.51 | 85 | 1009.5 |
| 20260506235824 | 18 | 178 | 0.0 | 0.0 | 0.00 | 0.51 | 0.51 | 85 | 1009.0 |
| 20260506234821 | 18 | 178 | 0.0 | 0.0 | 0.00 | 0.51 | 0.51 | 85 | 1009.1 |
| 20260506233814 | 18 | 178 | 0.0 | 1.6 | 0.00 | 0.51 | 0.51 | 85 | 1009.0 |
| 20260506232826 | 18 | 178 | 0.0 | 1.6 | 0.00 | 0.51 | 0.51 | 85 | 1008.9 |
| 20260506231840 | 18 | 178 | 0.0 | 1.6 | 0.00 | 0.51 | 0.51 | 85 | 1008.9 |
| 20260506230825 | 18 | 178 | 1.6 | 4.8 | 0.00 | 0.51 | 0.51 | 84 | 1008.6 |
| 20260506225839 | 18 | 192 | 1.6 | 4.8 | 0.00 | 0.51 | 0.51 | 84 | 1009.0 |
| 20260506224823 | 18 | 193 | 0.0 | 4.8 | 0.00 | 0.51 | 0.51 | 84 | 1008.8 |
| 20260506223814 | 18 | 192 | 0.0 | 3.2 | 0.00 | 0.51 | 0.51 | 84 | 1008.9 |
| 20260506222830 | 18 | 188 | 0.0 | 4.8 | 0.00 | 0.51 | 0.51 | 84 | 1009.0 |
| 20260506221824 | 18 | 189 | 0.0 | 4.8 | 0.00 | 0.51 | 0.51 | 85 | 1008.9 |
| 20260506220816 | 18 | 179 | 0.0 | 6.4 | 0.00 | 0.51 | 0.51 | 84 | 1009.0 |
| 20260506215822 | 18 | 215 | 0.0 | 8.0 | 0.00 | 0.51 | 0.51 | 84 | 1009.0 |
| 20260506214851 | 18 | 176 | 1.6 | 4.8 | 0.00 | 0.51 | 0.51 | 83 | 1008.9 |
| 20260506213821 | 18 | 202 | 0.0 | 4.8 | 0.00 | 0.51 | 0.51 | 83 | 1008.8 |
| 20260506212813 | 18 | 189 | 1.6 | 4.8 | 0.00 | 0.51 | 0.51 | 83 | 1008.4 |
| 20260506211830 | 18 | 219 | 3.2 | 8.0 | 0.00 | 0.51 | 0.51 | 82 | 1008.4 |
| 20260506210823 | 19 | 235 | 1.6 | 17.7 | 0.00 | 0.51 | 0.51 | 82 | 1008.3 |
| 20260506205814 | 19 | 190 | 0.0 | 11.3 | 0.00 | 0.51 | 0.51 | 83 | 1008.3 |
| 20260506204831 | 19 | 230 | 3.2 | 8.0 | 0.00 | 0.51 | 0.51 | 83 | 1008.2 |
| 20260506203817 | 18 | 153 | 1.6 | 11.3 | 0.00 | 0.51 | 0.51 | 84 | 1008.1 |
| 20260506202826 | 18 | 74 | 3.2 | 11.3 | 0.00 | 0.51 | 0.51 | 83 | 1008.2 |
| 20260506201820 | 18 | 229 | 3.2 | 11.3 | 0.00 | 0.51 | 0.51 | 83 | 1008.2 |
| 20260506200819 | 19 | 332 | 3.2 | 11.3 | 0.00 | 0.51 | 0.51 | 84 | 1008.2 |
| 20260506195827 | 18 | 181 | 3.2 | 12.9 | 0.00 | 0.51 | 0.51 | 85 | 1008.2 |
| 20260506194822 | 18 | 185 | 1.6 | 8.0 | 0.00 | 0.51 | 0.51 | 87 | 1008.1 |
| 20260506193816 | 17 | 178 | 3.2 | 8.0 | 0.00 | 0.51 | 0.51 | 88 | 1008.3 |
| 20260506192830 | 17 | 189 | 1.6 | 4.8 | 0.00 | 0.51 | 0.51 | 88 | 1008.3 |
| 20260506191839 | 17 | 182 | 3.2 | 8.0 | 0.03 | 0.51 | 0.51 | 88 | 1008.4 |
| 20260506190822 | 17 | 180 | 3.2 | 8.0 | 0.03 | 0.51 | 0.51 | 89 | 1008.6 |
| 20260506185841 | 17 | 190 | 3.2 | 8.0 | 0.03 | 0.51 | 0.51 | 89 | 1008.6 |
| 20260506184825 | 16 | 191 | 3.2 | 8.0 | 0.03 | 0.51 | 0.51 | 90 | 1008.6 |
| 20260506183819 | 16 | 159 | 3.2 | 8.0 | 0.03 | 0.51 | 0.51 | 90 | 1008.7 |
| 20260506182832 | 16 | 199 | 3.2 | 8.0 | 0.03 | 0.51 | 0.51 | 91 | 1008.8 |
| 20260506181826 | 16 | 179 | 1.6 | 8.0 | 0.00 | 0.48 | 0.48 | 91 | 1008.8 |
| 20260506180819 | 16 | 164 | 3.2 | 6.4 | 0.00 | 0.48 | 0.48 | 91 | 1009.1 |
| 20260506175825 | 16 | 220 | 3.2 | 14.5 | 0.00 | 0.48 | 0.48 | 91 | 1009.2 |
| 20260506174818 | 15 | 142 | 3.2 | 11.3 | 0.00 | 0.48 | 0.48 | 91 | 1009.2 |
| 20260506173831 | 15 | 216 | 3.2 | 9.7 | 0.00 | 0.48 | 0.48 | 91 | 1009.2 |
| 20260506172844 | 15 | 208 | 4.8 | 9.7 | 0.00 | 0.48 | 0.48 | 91 | 1009.1 |
| 20260506171852 | 15 | 175 | 3.2 | 8.0 | 0.00 | 0.48 | 0.48 | 91 | 1009.1 |
| 20260506170844 | 15 | 163 | 4.8 | 9.7 | 0.00 | 0.48 | 0.48 | 91 | 1009.1 |
| 20260506165830 | 15 | 194 | 4.8 | 9.7 | 0.00 | 0.48 | 0.48 | 92 | 1009.1 |
| 20260506164853 | 15 | 177 | 3.2 | 9.7 | 0.00 | 0.48 | 0.48 | 91 | 1009.2 |
| 20260506163815 | 15 | 196 | 4.8 | 11.3 | 0.00 | 0.48 | 0.48 | 92 | 1009.1 |
| 20260506162827 | 15 | 181 | 3.2 | 6.4 | 0.03 | 0.48 | 0.48 | 91 | 1009.3 |
| 20260506161819 | 15 | 212 | 3.2 | 9.7 | 0.05 | 0.48 | 0.48 | 91 | 1009.4 |
| 20260506160832 | 15 | 217 | 6.4 | 9.7 | 0.08 | 0.48 | 0.48 | 91 | 1009.4 |
| 20260506155816 | 15 | 179 | 4.8 | 12.9 | 0.13 | 0.48 | 0.48 | 92 | 1009.3 |
| 20260506154850 | 15 | 209 | 4.8 | 9.7 | 0.20 | 0.48 | 0.48 | 91 | 1009.1 |
| 20260506153822 | 15 | 199 | 6.4 | 9.7 | 0.23 | 0.48 | 0.48 | 91 | 1009.1 |
| 20260506152816 | 15 | 173 | 6.4 | 9.7 | 0.20 | 0.46 | 0.46 | 91 | 1009.2 |
| 20260506151833 | 15 | 169 | 4.8 | 9.7 | 0.20 | 0.43 | 0.43 | 91 | 1009.8 |
| 20260506150829 | 15 | 191 | 3.2 | 9.7 | 0.18 | 0.41 | 0.41 | 91 | 1010.0 |
| 20260506145814 | 15 | 177 | 4.8 | 12.9 | 0.15 | 0.36 | 0.36 | 90 | 1010.0 |
| 20260506144827 | 15 | 200 | 3.2 | 9.7 | 0.10 | 0.28 | 0.28 | 90 | 1010.1 |
| 20260506143839 | 15 | 188 | 3.2 | 12.9 | 0.10 | 0.25 | 0.25 | 90 | 1010.0 |
| 20260506142822 | 15 | 174 | 4.8 | 9.7 | 0.15 | 0.25 | 0.25 | 90 | 1009.8 |
| 20260506141842 | 15 | 180 | 4.8 | 9.7 | 0.18 | 0.23 | 0.23 | 89 | 1009.5 |
| 20260506140829 | 15 | 187 | 6.4 | 11.3 | 0.20 | 0.23 | 0.23 | 89 | 1009.9 |
| 20260506135834 | 15 | 184 | 4.8 | 9.7 | 0.18 | 0.20 | 0.20 | 89 | 1010.0 |
| 20260506134827 | 15 | 194 | 3.2 | 6.4 | 0.18 | 0.18 | 0.18 | 88 | 1010.1 |
| 20260506133839 | 15 | 177 | 4.8 | 8.0 | 0.15 | 0.15 | 0.15 | 87 | 1010.2 |
| 20260506132821 | 16 | 178 | 3.2 | 6.4 | 0.10 | 0.10 | 0.10 | 86 | 1010.2 |
| 20260506131832 | 16 | 207 | 3.2 | 8.0 | 0.05 | 0.05 | 0.05 | 85 | 1010.0 |
| 20260506130825 | 16 | 257 | 3.2 | 4.8 | 0.03 | 0.03 | 0.03 | 84 | 1010.1 |
| 20260506125830 | 16 | 187 | 3.2 | 8.0 | 0.03 | 0.03 | 0.03 | 83 | 1010.0 |
| 20260506124822 | 16 | 180 | 4.8 | 8.0 | 0.00 | 0.00 | 0.00 | 82 | 1010.1 |
| 20260506123814 | 17 | 190 | 4.8 | 8.0 | 0.00 | 0.00 | 0.00 | 81 | 1010.1 |
| 20260506122827 | 17 | 197 | 4.8 | 8.0 | 0.00 | 0.00 | 0.00 | 80 | 1010.2 |
| 20260506121820 | 17 | 200 | 4.8 | 9.7 | 0.00 | 0.00 | 0.00 | 80 | 1010.4 |
| 20260506120834 | 17 | 187 | 4.8 | 11.3 | 0.00 | 0.00 | 0.00 | 79 | 1010.5 |
| 20260506115819 | 17 | 185 | 6.4 | 14.5 | 0.00 | 0.00 | 0.00 | 79 | 1010.3 |
| 20260506114833 | 17 | 231 | 4.8 | 9.7 | 0.00 | 0.00 | 0.00 | 79 | 1010.1 |
| 20260506113816 | 17 | 178 | 3.2 | 9.7 | 0.00 | 0.00 | 0.00 | 79 | 1009.9 |
| 20260506112828 | 17 | 188 | 4.8 | 9.7 | 0.00 | 0.00 | 0.00 | 79 | 1010.0 |
| 20260506111821 | 17 | 185 | 3.2 | 12.9 | 0.00 | 0.00 | 0.00 | 78 | 1009.7 |
| 20260506110815 | 17 | 197 | 6.4 | 11.3 | 0.00 | 0.00 | 0.00 | 78 | 1009.8 |
| 20260506105821 | 17 | 184 | 6.4 | 12.9 | 0.00 | 0.00 | 0.00 | 77 | 1009.7 |
| 20260506104832 | 17 | 193 | 6.4 | 11.3 | 0.00 | 0.00 | 0.00 | 77 | 1009.6 |
| 20260506103824 | 17 | 186 | 6.4 | 16.1 | 0.00 | 0.00 | 0.00 | 77 | 1009.4 |
| 20260506102835 | 17 | 190 | 4.8 | 12.9 | 0.00 | 0.00 | 0.00 | 77 | 1009.4 |
| 20260506101826 | 17 | 190 | 4.8 | 14.5 | 0.00 | 0.00 | 0.00 | 77 | 1009.4 |
| 20260506100818 | 17 | 194 | 6.4 | 11.3 | 0.00 | 0.00 | 0.00 | 76 | 1009.4 |
| 20260506095819 | 17 | 188 | 6.4 | 9.7 | 0.00 | 0.00 | 0.00 | 76 | 1009.4 |
| 20260506094832 | 17 | 182 | 6.4 | 9.7 | 0.00 | 0.00 | 0.00 | 75 | 1009.4 |
| 20260506093824 | 17 | 188 | 6.4 | 9.7 | 0.00 | 0.00 | 0.00 | 75 | 1009.2 |
| 20260506092815 | 18 | 175 | 4.8 | 9.7 | 0.00 | 0.00 | 0.00 | 74 | 1009.3 |
| 20260506091828 | 18 | 180 | 3.2 | 9.7 | 0.00 | 0.00 | 0.00 | 73 | 1009.3 |
| 20260506090841 | 18 | 195 | 4.8 | 9.7 | 0.00 | 0.00 | 0.00 | 73 | 1009.5 |
| 20260506085824 | 18 | 196 | 6.4 | 11.3 | 0.00 | 0.00 | 0.00 | 73 | 1009.6 |
| 20260506084837 | 18 | 173 | 4.8 | 11.3 | 0.00 | 0.00 | 0.00 | 72 | 1009.6 |
| 20260506083822 | 18 | 199 | 6.4 | 11.3 | 0.00 | 0.00 | 0.00 | 72 | 1009.7 |
| 20260506082844 | 18 | 184 | 4.8 | 11.3 | 0.00 | 0.00 | 0.00 | 71 | 1009.7 |
| 20260506081836 | 18 | 188 | 4.8 | 11.3 | 0.00 | 0.00 | 0.00 | 70 | 1009.6 |
| 20260506080818 | 18 | 190 | 6.4 | 9.7 | 0.00 | 0.00 | 0.00 | 69 | 1009.4 |
| 20260506072816 | 20 | 185 | 4.8 | 9.7 | 0.00 | 0.00 | 0.00 | 67 | 1009.7 |
| 20260506071829 | 20 | 190 | 4.8 | 9.7 | 0.00 | 0.00 | 0.00 | 66 | 1009.8 |
| 20260506070820 | 20 | 183 | 4.8 | 9.7 | 0.00 | 0.00 | 0.00 | 65 | 1009.8 |
| 20260506061851 | 20 | 178 | 3.2 | 11.3 | 0.00 | 0.00 | 0.00 | 63 | 1010.2 |
| 20260506060852 | 20 | 183 | 4.8 | 11.3 | 0.00 | 0.00 | 0.00 | 63 | 1010.3 |